Content
SEND FEEDBACK

Daily
Averages
Monthly
Summary
Portugal

AVEIRO, PORTUGAL


Home > Europe > Portugal
Elevation: 29 feet     Latitude: 40 38N     Longitude: 008 44W

WEATHER
 
SELECT A DAY
Number of Records: 54,986;   Date Range: 4/29/99 - 7/29/14
 
SHARE

PRINT THIS DATA

[ ← Previous Day ]
WEATHER ALMANAC - FEBRUARY 13, 2013
[ Next Day → ]
[ °C ]   °F
Weather ElementAverageHighLow
Temperature54.7 °F59 °F (1:00 pm)46.4 °F (11:00 pm)
Dewpoint51.5 °F53.6 °F (5:00 am)46.4 °F (11:00 pm)
Humidity89.4 %100 % (4:00 am)77 % (2:00 pm)
Barometer30.28 in30.30 in (9:00 am)30.24 in (5:00 am)
Wind Speed8.7 mph13.8 mph (2:00 pm)
Weather ElementAverage
Visibility5.6 mi
Wind DirectionSW (221.7 °)

Weather ElementTotal
Precipitation---
Heating Degree Days12.3 (Base 65)
Growing Degree Days2.7 (Base 50)
Averaged from 23 records on February 13, 2013
WEATHER CONDITIONS BREAKOUT
WIND DIRECTION BREAKOUT
WEATHER BY HOUR - FEBRUARY 13, 2013
[ °C ]   °F
Local TimeTemperatureDewpointHumidityBarometerVisibilityWind DirectionWind SpeedGust SpeedPrecipitationEventsConditions
1:00 AM53.6 °F51.8 °F94 %30.27 in3.7 miNNE (20°)3.5 mphMostly Cloudy
2:00 AM53.6 °F51.8 °F94 %30.27 in3.7 miNorth (360°)4.6 mphMostly Cloudy
3:00 AM53.6 °F51.8 °F94 %30.27 in3.1 miNorth (360°)3.5 mphMostly Cloudy
4:00 AM51.8 °F51.8 °F100 %30.27 in3.1 miNorth (350°)4.6 mphMostly Cloudy
5:00 AM53.6 °F53.6 °F100 %30.24 in5.0 miNorth (350°)10.4 mphMostly Cloudy
6:00 AM55.4 °F53.6 °F94 %30.24 in6.2 miNorth (10°)10.4 mphMostly Cloudy
7:00 AM53.6 °F51.8 °F94 %30.27 in6.2 miNorth (10°)6.9 mphScattered Clouds
8:00 AM53.6 °F50.0 °F88 %30.27 in6.2 miNNE (20°)9.2 mphScattered Clouds
9:00 AM55.4 °F51.8 °F88 %30.30 in6.2 miNNE (20°)6.9 mphMostly Cloudy
10:00 AM55.4 °F51.8 °F88 %30.30 in6.2 miNNE (20°)5.8 mphScattered Clouds
11:00 AM55.4 °F51.8 °F88 %30.30 in6.2 miNorth (350°)8.1 mphScattered Clouds
12:00 PM57.2 °F51.8 °F82 %30.30 in6.2 miNNW (330°)9.2 mphScattered Clouds
1:00 PM59.0 °F53.6 °F82 %30.30 in6.2 miNorth (360°)11.5 mphScattered Clouds
2:00 PM59.0 °F51.8 °F77 %30.27 in6.2 miNorth (350°)13.8 mphScattered Clouds
3:00 PM59.0 °F51.8 °F77 %30.27 in6.2 miNorth (360°)13.8 mphScattered Clouds
4:00 PM57.2 °F51.8 °F82 %30.27 in6.2 miNorth (360°)13.8 mphScattered Clouds
5:00 PM57.2 °F51.8 °F82 %30.27 in6.2 miNorth (360°)13.8 mphPartly Cloudy
6:00 PM55.4 °F51.8 °F88 %30.27 in6.2 miNorth (360°)12.7 mphPartly Cloudy
7:00 PM55.4 °F50.0 °F82 %30.27 in6.2 miNorth (360°)13.8 mphPartly Cloudy
8:00 PM53.6 °F51.8 °F94 %30.30 in6.2 miNorth (360°)11.5 mphPartly Cloudy
9:00 PM53.6 °F51.8 °F94 %30.30 in6.2 miNorth (10°)8.1 mphPartly Cloudy
10:00 PM50.0 °F48.2 °F94 %30.30 in6.2 miNNE (20°)2.3 mphPartly Cloudy
11:00 PM46.4 °F46.4 °F100 %30.30 in5.0 miVariable1.2 mph
Hourly data recorded from LPOV, located miles away from Aveiro, Portugal







STORIES FROM OUR PARTNERS